Tracking 27420 objects as of 28-May-2023
HD Live streaming from Space Station
objects crossing your sky now

CZ-4 DEB

Track CZ-4 DEB now!
10-day predictions


NORAD ID: 37615
Int'l Code: 1990-081DB
Perigee: 793.8 km
Apogee: 813.4 km
Inclination: 98.5 °
Period: 100.8 minutes
Semi major axis: 7174 km
RCS: 0.0076 m2 (small)
Launch date: September 3, 1990
Source: People's Republic of China (PRC)
Launch site: Taiyaun Space Center, China (TSC)

Note: This is SATELLITE DEBRIS
Your satellite tracking list
Your tracking list is empty




NASA's NSSDC Master Catalog

Two Line Element Set (TLE):
1 37615U 90081DB  23147.27265070  .00001426  00000-0  58488-3 0  9995
2 37615  98.5081 150.1301 0013606 329.7281  30.3114 14.28586203464874
Source of the keplerian elements: AFSPC